QPF
0.09 0.10 0.09 0.09 0.09 0.08 0.10 0.12 0.13 0.14 0.12 0.08 0.07 0.08 0.08 0.07 0.08 0.07 0.07 0.06 0.05 0.04 0.04 0.04 0.04 0.04 0.04 0.04 0.04 0.04 0.04 0.03 0.03 0.02 0.02 0.03 0.04 0.06
0.10 0.09 0.08 0.07 0.07 0.07 0.08 0.08 0.10 0.13 0.11 0.08 0.08 0.08 0.08 0.08 0.09 0.07 0.06 0.06 0.05 0.05 0.04 0.04 0.04 0.04 0.04 0.03 0.03 0.02 0.02 0.01 0.02 0.01 0.01 0.02 0.02 0.02
0.08 0.07 0.07 0.08 0.08 0.07 0.07 0.08 0.10 0.13 0.11 0.07 0.07 0.08 0.08 0.07 0.07 0.06 0.05 0.05 0.06 0.07 0.06 0.05 0.04 0.02 0.02 0.01 0.01 0.01 0.01 0.01 0.02 0.02 0.03 0.03 0.03 0.02
0.05 0.05 0.05 0.06 0.06 0.06 0.07 0.07 0.09 0.12 0.11 0.07 0.07 0.07 0.07 0.06 0.06 0.06 0.06 0.07 0.07 0.08 0.05 0.03 0.02 0.02 0.01 0.01 0.02 0.02 0.01 0.01 0.01 0.01 0.02 0.04 0.04 0.04
0.06 0.04 0.04 0.04 0.05 0.05 0.06 0.07 0.08 0.09 0.10 0.09 0.08 0.09 0.08 0.07 0.08 0.08 0.06 0.06 0.04 0.04 0.04 0.02 0.02 0.01 0.01 0.01 0.01 0.01 0.01 0.01 0.01 0.01 0.01 0.02 0.03 0.03
0.06 0.05 0.06 0.06 0.06 0.06 0.06 0.07 0.09 0.10 0.11 0.10 0.09 0.08 0.07 0.07 0.07 0.06 0.06 0.05 0.04 0.03 0.03 0.02 0.02 0.01 0.01 0.01 0.01 0.01 0.01 0.01 0.01 0.01 0.01 0.01 0.02 0.02
0.07 0.06 0.07 0.07 0.07 0.07 0.07 0.08 0.10 0.10 0.10 0.09 0.08 0.08 0.08 0.08 0.07 0.05 0.06 0.05 0.05 0.04 0.04 0.04 0.02 0.01 0.01 0.01 0.01 0.01 0.01 0.00 0.00 0.00 0.01 0.01 0.01 0.02
0.08 0.06 0.07 0.07 0.07 0.07 0.06 0.06 0.06 0.08 0.09 0.10 0.10 0.10 0.08 0.07 0.08 0.07 0.06 0.05 0.05 0.04 0.04 0.03 0.02 0.02 0.01 0.01 0.01 0.01 0.01 0.01 0.01 0.01 0.01 0.02 0.02 0.03
0.08 0.08 0.07 0.06 0.07 0.06 0.06 0.07 0.06 0.07 0.08 0.09 0.11 0.11 0.10 0.09 0.09 0.07 0.06 0.06 0.05 0.02 0.02 0.02 0.02 0.02 0.02 0.02 0.02 0.03 0.03 0.03 0.03 0.03 0.02 0.02 0.02 0.03
0.05 0.05 0.04 0.04 0.05 0.06 0.06 0.06 0.06 0.08 0.10 0.10 0.11 0.12 0.12 0.10 0.08 0.06 0.05 0.05 0.04 0.02 0.02 0.03 0.02 0.03 0.02 0.02 0.02 0.03 0.03 0.04 0.04 0.04 0.03 0.03 0.03 0.02
0.04 0.03 0.03 0.03 0.04 0.04 0.03 0.04 0.06 0.08 0.09 0.10 0.11 0.11 0.11 0.09 0.07 0.06 0.05 0.05 0.05 0.04 0.04 0.04 0.03 0.03 0.02 0.02 0.02 0.04 0.04 0.04 0.04 0.04 0.04 0.04 0.04 0.03
0.02 0.02 0.03 0.03 0.04 0.04 0.04 0.05 0.06 0.08 0.08 0.07 0.06 0.07 0.07 0.07 0.08 0.08 0.09 0.10 0.10 0.09 0.08 0.07 0.07 0.07 0.06 0.04 0.04 0.04 0.05 0.05 0.05 0.05 0.05 0.05 0.05 0.04
0.01 0.02 0.03 0.05 0.05 0.05 0.05 0.05 0.05 0.05 0.05 0.04 0.04 0.06 0.07 0.09 0.12 0.13 0.13 0.13 0.13 0.13 0.11 0.09 0.08 0.07 0.06 0.04 0.04 0.03 0.03 0.03 0.04 0.03 0.03 0.03 0.03 0.03
0.03 0.03 0.04 0.04 0.03 0.03 0.03 0.03 0.03 0.03 0.03 0.03 0.04 0.05 0.06 0.07 0.09 0.10 0.12 0.12 0.11 0.09 0.07 0.05 0.05 0.04 0.04 0.05 0.05 0.04 0.05 0.05 0.05 0.05 0.04 0.04 0.05 0.04
0.03 0.04 0.03 0.02 0.02 0.01 0.01 0.02 0.02 0.02 0.02 0.02 0.03 0.04 0.05 0.06 0.06 0.07 0.08 0.07 0.06 0.05 0.04 0.03 0.03 0.04 0.04 0.04 0.05 0.05 0.05 0.04 0.05 0.05 0.05 0.04 0.04 0.04
0.02 0.02 0.02 0.01 0.01 0.01 0.01 0.01 0.02 0.02 0.02 0.02 0.03 0.04 0.05 0.05 0.05 0.05 0.05 0.05 0.04 0.03 0.03 0.02 0.02 0.02 0.02 0.02 0.02 0.02 0.02 0.02 0.03 0.04 0.04 0.03 0.03 0.03
0.01 0.01 0.01 0.01 0.01 0.01 0.02 0.03 0.02 0.02 0.03 0.03 0.03 0.03 0.03 0.03 0.03 0.03 0.02 0.02 0.02 0.02 0.02 0.02 0.01 0.01 0.01 0.01 0.01 0.01 0.02 0.02 0.02 0.02 0.03 0.03 0.03 0.03
0.03 0.02 0.02 0.02 0.02 0.02 0.02 0.02 0.02 0.01 0.01 0.01 0.02 0.02 0.02 0.02 0.02 0.02 0.02 0.02 0.02 0.02 0.03 0.02 0.02 0.02 0.02 0.01 0.01 0.01 0.01 0.01 0.01 0.01 0.02 0.03 0.03 0.04
0.03 0.03 0.02 0.02 0.02 0.02 0.02 0.01 0.01 0.01 0.01 0.01 0.01 0.01 0.02 0.02 0.02 0.02 0.02 0.02 0.02 0.02 0.02 0.02 0.02 0.02 0.03 0.02 0.01 0.00 0.00 0.01 0.01 0.02 0.02 0.03 0.03 0.03
0.03 0.03 0.03 0.03 0.03 0.03 0.03 0.02 0.02 0.01 0.01 0.01 0.01 0.01 0.01 0.01 0.01 0.01 0.01 0.01 0.01 0.02 0.02 0.02 0.02 0.02 0.03 0.03 0.03 0.02 0.01 0.01 0.02 0.02 0.02 0.02 0.02 0.01
0.03 0.03 0.03 0.04 0.04 0.04 0.04 0.03 0.02 0.02 0.02 0.01 0.01 0.01 0.01 0.01 0.01 0.01 0.01 0.01 0.01 0.02 0.02 0.02 0.02 0.02 0.02 0.04 0.05 0.04 0.03 0.02 0.02 0.02 0.02 0.02 0.02 0.02
0.03 0.03 0.03 0.03 0.02 0.02 0.02 0.02 0.01 0.01 0.02 0.02 0.01 0.01 0.01 0.01 0.01 0.01 0.02 0.02 0.02 0.02 0.02 0.01 0.02 0.02 0.03 0.04 0.04 0.04 0.03 0.02 0.02 0.02 0.02 0.02 0.02 0.01
0.01 0.01 0.01 0.01 0.01 0.01 0.01 0.01 0.01 0.01 0.01 0.01 0.01 0.01 0.01 0.01 0.02 0.02 0.02 0.02 0.02 0.02 0.03 0.02 0.02 0.03 0.03 0.03 0.03 0.03 0.03 0.03 0.03 0.04 0.03 0.02 0.02 0.01
MSLP
1014.77 1014.88 1015.02 1015.18 1015.33 1015.41 1015.41 1015.31 1015.11 1014.83 1014.51 1014.18 1013.89 1013.68 1013.57 1013.57 1013.67 1013.85 1014.09 1014.35 1014.61 1014.84 1015.03 1015.16 1015.24 1015.27 1015.25 1015.19 1015.11 1015.01 1014.91 1014.82 1014.73 1014.66 1014.61 1014.57 1014.56 1014.58
1014.73 1014.81 1014.92 1015.05 1015.15 1015.20 1015.18 1015.08 1014.90 1014.66 1014.41 1014.17 1014.00 1013.90 1013.91 1014.03 1014.23 1014.49 1014.79 1015.08 1015.35 1015.56 1015.71 1015.79 1015.80 1015.75 1015.66 1015.54 1015.40 1015.26 1015.12 1015.00 1014.89 1014.81 1014.75 1014.72 1014.72 1014.75
1014.89 1014.96 1015.04 1015.12 1015.17 1015.17 1015.11 1014.98 1014.80 1014.60 1014.41 1014.26 1014.18 1014.21 1014.35 1014.58 1014.89 1015.24 1015.60 1015.94 1016.23 1016.43 1016.56 1016.60 1016.57 1016.47 1016.33 1016.17 1015.99 1015.82 1015.66 1015.52 1015.41 1015.32 1015.27 1015.25 1015.26 1015.32
1015.19 1015.27 1015.33 1015.38 1015.38 1015.32 1015.21 1015.05 1014.87 1014.68 1014.53 1014.45 1014.46 1014.60 1014.84 1015.18 1015.58 1016.02 1016.45 1016.84 1017.15 1017.37 1017.50 1017.53 1017.48 1017.37 1017.22 1017.04 1016.86 1016.68 1016.51 1016.37 1016.25 1016.17 1016.12 1016.11 1016.15 1016.23
1015.57 1015.66 1015.72 1015.75 1015.72 1015.62 1015.48 1015.29 1015.09 1014.91 1014.78 1014.75 1014.83 1015.03 1015.35 1015.77 1016.24 1016.75 1017.23 1017.67 1018.02 1018.27 1018.43 1018.49 1018.46 1018.38 1018.25 1018.09 1017.93 1017.76 1017.61 1017.47 1017.36 1017.28 1017.24 1017.25 1017.30 1017.41
1015.92 1016.04 1016.12 1016.14 1016.11 1016.00 1015.84 1015.63 1015.43 1015.25 1015.13 1015.12 1015.23 1015.47 1015.83 1016.29 1016.81 1017.35 1017.88 1018.35 1018.75 1019.05 1019.25 1019.37 1019.40 1019.38 1019.30 1019.20 1019.08 1018.95 1018.83 1018.71 1018.62 1018.55 1018.52 1018.53 1018.60 1018.72
1016.18 1016.33 1016.44 1016.48 1016.46 1016.37 1016.21 1016.01 1015.81 1015.63 1015.53 1015.52 1015.63 1015.88 1016.24 1016.70 1017.23 1017.78 1018.32 1018.83 1019.26 1019.61 1019.88 1020.07 1020.19 1020.25 1020.26 1020.24 1020.19 1020.12 1020.04 1019.95 1019.88 1019.82 1019.80 1019.82 1019.89 1020.03
1016.30 1016.48 1016.62 1016.71 1016.72 1016.66 1016.53 1016.36 1016.17 1016.00 1015.90 1015.88 1015.98 1016.20 1016.54 1016.97 1017.47 1018.01 1018.55 1019.06 1019.52 1019.93 1020.26 1020.54 1020.75 1020.90 1021.01 1021.08 1021.11 1021.11 1021.08 1021.04 1020.99 1020.95 1020.94 1020.96 1021.04 1021.17
1016.27 1016.48 1016.66 1016.79 1016.85 1016.84 1016.76 1016.62 1016.46 1016.31 1016.20 1016.17 1016.24 1016.42 1016.71 1017.09 1017.55 1018.04 1018.56 1019.06 1019.54 1019.98 1020.37 1020.71 1021.01 1021.26 1021.46 1021.62 1021.73 1021.80 1021.84 1021.84 1021.83 1021.81 1021.81 1021.84 1021.92 1022.04
1016.11 1016.35 1016.57 1016.74 1016.86 1016.90 1016.87 1016.77 1016.65 1016.51 1016.41 1016.36 1016.40 1016.54 1016.77 1017.09 1017.48 1017.92 1018.39 1018.87 1019.34 1019.79 1020.22 1020.61 1020.97 1021.30 1021.58 1021.81 1022.00 1022.13 1022.22 1022.27 1022.30 1022.31 1022.33 1022.38 1022.46 1022.57
1015.87 1016.13 1016.39 1016.60 1016.77 1016.86 1016.87 1016.82 1016.73 1016.62 1016.53 1016.47 1016.49 1016.58 1016.76 1017.02 1017.34 1017.72 1018.13 1018.57 1019.01 1019.45 1019.88 1020.29 1020.68 1021.05 1021.38 1021.67 1021.91 1022.10 1022.24 1022.33 1022.40 1022.45 1022.49 1022.55 1022.64 1022.75
1015.60 1015.89 1016.17 1016.42 1016.62 1016.74 1016.80 1016.79 1016.73 1016.65 1016.56 1016.51 1016.51 1016.58 1016.71 1016.92 1017.18 1017.50 1017.85 1018.23 1018.62 1019.02 1019.43 1019.83 1020.22 1020.60 1020.95 1021.26 1021.54 1021.76 1021.94 1022.08 1022.18 1022.27 1022.34 1022.42 1022.51 1022.63
1015.34 1015.65 1015.95 1016.22 1016.44 1016.59 1016.67 1016.69 1016.66 1016.60 1016.54 1016.50 1016.50 1016.55 1016.66 1016.83 1017.05 1017.31 1017.60 1017.92 1018.25 1018.60 1018.96 1019.32 1019.69 1020.04 1020.38 1020.70 1020.99 1021.23 1021.44 1021.61 1021.74 1021.86 1021.96 1022.06 1022.17 1022.29
1015.09 1015.42 1015.73 1016.01 1016.24 1016.40 1016.50 1016.54 1016.53 1016.50 1016.47 1016.45 1016.46 1016.52 1016.62 1016.77 1016.96 1017.18 1017.42 1017.68 1017.96 1018.24 1018.54 1018.85 1019.17 1019.48 1019.80 1020.10 1020.38 1020.63 1020.85 1021.04 1021.20 1021.34 1021.47 1021.58 1021.70 1021.82
1014.85 1015.19 1015.51 1015.79 1016.01 1016.17 1016.28 1016.33 1016.35 1016.34 1016.34 1016.35 1016.39 1016.47 1016.58 1016.73 1016.90 1017.09 1017.30 1017.52 1017.74 1017.97 1018.21 1018.47 1018.73 1019.00 1019.28 1019.55 1019.82 1020.06 1020.29 1020.48 1020.66 1020.81 1020.95 1021.08 1021.20 1021.32
1014.58 1014.93 1015.25 1015.52 1015.74 1015.90 1016.00 1016.06 1016.10 1016.12 1016.15 1016.20 1016.27 1016.38 1016.51 1016.67 1016.84 1017.03 1017.21 1017.40 1017.59 1017.78 1017.98 1018.19 1018.41 1018.64 1018.89 1019.13 1019.37 1019.61 1019.82 1020.02 1020.20 1020.35 1020.49 1020.62 1020.73 1020.84
1014.27 1014.63 1014.94 1015.20 1015.41 1015.56 1015.67 1015.74 1015.79 1015.84 1015.90 1015.98 1016.09 1016.23 1016.39 1016.56 1016.75 1016.93 1017.12 1017.29 1017.47 1017.64 1017.82 1018.00 1018.20 1018.41 1018.63 1018.86 1019.08 1019.30 1019.50 1019.68 1019.85 1019.99 1020.12 1020.23 1020.33 1020.42
1013.90 1014.26 1014.57 1014.83 1015.03 1015.19 1015.30 1015.38 1015.45 1015.53 1015.61 1015.72 1015.85 1016.01 1016.19 1016.38 1016.58 1016.77 1016.96 1017.15 1017.33 1017.51 1017.69 1017.88 1018.08 1018.28 1018.49 1018.71 1018.91 1019.11 1019.29 1019.45 1019.59 1019.71 1019.81 1019.89 1019.97 1020.04
1013.48 1013.84 1014.16 1014.42 1014.64 1014.80 1014.93 1015.03 1015.12 1015.21 1015.31 1015.43 1015.57 1015.74 1015.92 1016.12 1016.33 1016.54 1016.74 1016.95 1017.15 1017.36 1017.57 1017.78 1017.99 1018.21 1018.42 1018.63 1018.82 1018.99 1019.14 1019.27 1019.37 1019.46 1019.52 1019.57 1019.62 1019.67
1013.03 1013.41 1013.74 1014.03 1014.27 1014.45 1014.60 1014.72 1014.83 1014.93 1015.03 1015.15 1015.29 1015.44 1015.62 1015.81 1016.01 1016.23 1016.45 1016.69 1016.92 1017.17 1017.41 1017.66 1017.91 1018.14 1018.36 1018.56 1018.74 1018.88 1019.00 1019.08 1019.14 1019.18 1019.20 1019.22 1019.24 1019.27
1012.61 1013.01 1013.37 1013.69 1013.97 1014.19 1014.37 1014.51 1014.62 1014.72 1014.82 1014.92 1015.03 1015.16 1015.31 1015.48 1015.67 1015.89 1016.13 1016.38 1016.66 1016.94 1017.23 1017.52 1017.79 1018.05 1018.27 1018.46 1018.61 1018.72 1018.79 1018.83 1018.84 1018.83 1018.82 1018.81 1018.80 1018.82
1012.25 1012.69 1013.09 1013.46 1013.77 1014.03 1014.24 1014.40 1014.52 1014.61 1014.69 1014.75 1014.83 1014.91 1015.02 1015.16 1015.34 1015.55 1015.80 1016.07 1016.38 1016.70 1017.02 1017.34 1017.64 1017.90 1018.12 1018.29 1018.41 1018.48 1018.50 1018.48 1018.45 1018.40 1018.35 1018.32 1018.31 1018.31
1012.00 1012.47 1012.92 1013.33 1013.68 1013.98 1014.21 1014.39 1014.51 1014.59 1014.63 1014.66 1014.68 1014.72 1014.79 1014.90 1015.05 1015.25 1015.50 1015.79 1016.12 1016.46 1016.81 1017.15 1017.45 1017.71 1017.91 1018.05 1018.12 1018.14 1018.11 1018.05 1017.98 1017.90 1017.83 1017.79 1017.78 1017.79
Thickness
5746 5745 5744 5743 5743 5742 5741 5737 5728 5720 5718 5720 5720 5720 5717 5715 5711 5708 5705 5702 5699 5696 5693 5690 5687 5684 5681 5679 5676 5674 5673 5671 5670 5668 5667 5665 5664 5662
5743 5741 5740 5740 5740 5739 5737 5735 5732 5724 5717 5716 5715 5714 5712 5709 5704 5701 5698 5695 5691 5688 5685 5681 5678 5675 5673 5670 5668 5665 5663 5662 5660 5659 5658 5656 5654 5652
5739 5738 5736 5736 5734 5734 5733 5731 5728 5724 5716 5712 5711 5708 5705 5702 5697 5694 5690 5687 5683 5680 5676 5673 5670 5667 5664 5661 5658 5656 5654 5652 5650 5649 5647 5645 5643 5642
5734 5733 5732 5731 5729 5728 5727 5725 5723 5720 5714 5706 5703 5700 5697 5695 5691 5687 5683 5679 5675 5671 5667 5664 5661 5657 5654 5652 5649 5646 5644 5642 5640 5638 5636 5634 5632 5629
5730 5727 5726 5725 5723 5722 5720 5719 5717 5716 5711 5704 5698 5694 5690 5687 5683 5679 5675 5671 5667 5662 5658 5654 5651 5648 5645 5642 5639 5636 5634 5632 5630 5627 5625 5622 5620 5617
5725 5723 5721 5719 5717 5716 5715 5712 5711 5707 5704 5698 5692 5687 5683 5680 5676 5671 5666 5662 5659 5655 5650 5645 5642 5638 5635 5632 5630 5627 5624 5621 5619 5616 5613 5610 5608 5605
5719 5718 5715 5713 5711 5710 5708 5705 5703 5699 5696 5690 5685 5680 5676 5671 5668 5664 5659 5655 5652 5648 5642 5638 5634 5630 5626 5623 5620 5617 5614 5611 5608 5605 5602 5600 5597 5594
5713 5711 5709 5707 5704 5702 5700 5698 5695 5692 5688 5683 5678 5673 5669 5666 5662 5658 5652 5647 5642 5641 5636 5631 5628 5623 5619 5615 5611 5607 5604 5600 5597 5594 5592 5589 5586 5583
5706 5704 5703 5700 5697 5695 5693 5690 5687 5684 5681 5677 5672 5667 5663 5660 5655 5651 5646 5642 5637 5634 5629 5623 5621 5616 5612 5608 5603 5599 5595 5591 5587 5584 5581 5578 5575 5573
5698 5696 5693 5690 5688 5686 5684 5682 5678 5675 5672 5669 5665 5661 5658 5654 5649 5646 5641 5635 5631 5627 5623 5616 5613 5608 5605 5599 5595 5591 5587 5583 5579 5576 5572 5569 5566 5563
5690 5687 5684 5681 5677 5676 5674 5672 5669 5665 5662 5660 5657 5653 5649 5645 5641 5636 5632 5627 5621 5618 5615 5610 5606 5601 5596 5592 5587 5583 5579 5575 5571 5567 5564 5560 5557 5554
5681 5678 5674 5671 5668 5666 5665 5662 5658 5656 5654 5651 5647 5643 5640 5636 5632 5629 5625 5620 5615 5609 5606 5602 5598 5593 5588 5585 5581 5576 5571 5567 5564 5560 5556 5553 5549 5545
5674 5670 5665 5661 5659 5657 5655 5652 5648 5645 5644 5642 5639 5635 5631 5628 5624 5620 5617 5612 5607 5602 5599 5595 5590 5586 5582 5577 5574 5570 5566 5561 5557 5553 5550 5546 5543 5539
5665 5661 5656 5652 5650 5647 5645 5642 5639 5637 5635 5633 5630 5626 5622 5618 5615 5612 5608 5604 5600 5596 5592 5587 5583 5578 5573 5569 5566 5564 5560 5556 5552 5548 5544 5540 5536 5533
5655 5651 5647 5643 5641 5638 5635 5633 5630 5629 5627 5624 5620 5617 5614 5610 5606 5603 5599 5596 5592 5588 5585 5580 5576 5572 5567 5563 5559 5556 5552 5549 5546 5542 5538 5535 5531 5528
5646 5641 5638 5635 5631 5629 5627 5624 5622 5620 5617 5614 5611 5608 5606 5602 5598 5594 5590 5587 5583 5580 5576 5572 5569 5565 5560 5557 5553 5549 5546 5543 5540 5537 5533 5530 5527 5524
5637 5634 5630 5627 5624 5621 5619 5616 5614 5611 5608 5604 5601 5598 5595 5592 5589 5586 5582 5578 5574 5571 5567 5564 5561 5558 5554 5550 5545 5543 5540 5537 5535 5532 5528 5524 5523 5521
5628 5625 5622 5619 5616 5613 5610 5607 5604 5601 5599 5596 5592 5589 5586 5583 5580 5577 5574 5570 5567 5564 5560 5557 5553 5549 5545 5543 5540 5537 5534 5532 5529 5527 5524 5520 5518 5517
5618 5616 5613 5610 5607 5604 5601 5598 5595 5592 5589 5586 5582 5580 5577 5574 5571 5568 5565 5562 5559 5556 5553 5550 5546 5541 5537 5534 5535 5532 5529 5526 5523 5520 5518 5516 5514 5512
5609 5607 5604 5601 5598 5595 5592 5588 5585 5582 5579 5576 5573 5570 5568 5565 5563 5560 5557 5553 5550 5548 5546 5543 5540 5536 5533 5530 5528 5527 5524 5521 5517 5514 5512 5511 5510 5508
5601 5598 5596 5592 5589 5586 5583 5579 5576 5572 5569 5566 5563 5561 5559 5556 5554 5552 5549 5546 5542 5540 5538 5536 5535 5532 5530 5526 5522 5521 5520 5518 5515 5511 5508 5506 5504 5502
5593 5590 5587 5583 5580 5577 5573 5569 5566 5563 5560 5557 5554 5552 5550 5548 5546 5544 5542 5539 5536 5535 5532 5530 5529 5526 5522 5519 5517 5516 5515 5513 5511 5508 5505 5503 5500 5498
5584 5581 5578 5575 5571 5567 5564 5560 5557 5554 5550 5547 5545 5543 5541 5539 5537 5536 5534 5532 5530 5528 5526 5523 5521 5518 5515 5513 5512 5510 5509 5508 5506 5503 5500 5499 5497 5495